Regional Weather Roundup
Issued by NWS Kansas City/Pleasant Hill, MO

Home | Current Version | Previous Version | Graphics & Text | Print | Product List | Glossary Off
Versions: 1 2 3 4 5 6 7 8 9 10 11 12 13 14 15 16 17 18 19 20 21 22 23 24 25 26 27 28 29 30 31 32 33 34 35 36 37 38 39 40 41 42 43 44 45 46 47 48 49 50

550
ASUS43 KEAX 180810
RWREAX

WEATHER ROUNDUP FOR EASTERN KANSAS AND NORTHWEST MISSOURI
NATIONAL WEATHER SERVICE KANSAS CITY/PLEASANT HILL MO
200 AM CST SUN FEB 18 2018

KSZ040-057-103>105-MOZ028-029-037-043-180900-
...KANSAS CITY METROPOLITAN AREA...

CITY           SKY/WX    TMP DP  RH WIND       PRES   REMARKS
K.C. INTL      CLEAR     35  20  54 S12       30.13F WCI  27
K.C. DOWNTOWN  CLEAR     39  21  48 SE6       30.14F WCI  35
LEES SUMMIT    CLOUDY    37  21  52 SE10      30.15F WCI  30
OLATHE - IXD   CLOUDY    30  21  69 S6        30.15F WCI  24
OLATHE - OJC   PTCLDY    33  22  63 S8        30.15F WCI  26
LAWRENCE       CLEAR     23  19  85 E5        30.15S WCI  17

$$

MOZ001>008-011>017-020>025-030>033-038>040-044>046-053-054-180900-
...NORTHERN AND CENTRAL MISSOURI...

CITY           SKY/WX    TMP DP  RH WIND       PRES   REMARKS
ST. JOSEPH     CLEAR     22  19  89 W5        30.13F WCI  16
MOSBY          SUNNY     23  19  86 CALM      30.16F
WARRENSBURG    CLOUDY    32  21  64 SE5       30.18F WCI  27
WHITEMAN AFB   CLOUDY    31  21  66 E5        30.14F WCI  26
CLINTON        CLOUDY    32  23  69 SE6       30.19F WCI  26
SEDALIA        CLOUDY    29  23  78 SE8       30.21F WCI  21
WARSAW         NOT AVBL
CHILLICOTHE      N/A     22  18  85 CALM      30.18F
KIRKSVILLE     CLEAR     28  22  78 SE9       30.19F WCI  19

$$

MOZ041-047>049-056>058-063>065-088>090-097-180900-
...EASTERN AND SOUTHERN MISSOURI...

CITY           SKY/WX    TMP DP  RH WIND       PRES   REMARKS
ST. LOUIS INTL CLEAR     28  27  96 CALM      30.27R
SPIRIT OF STL  PTCLDY    25  24  96 CALM      30.27R FOG
COLUMBIA       CLEAR     34  23  64 S7        30.22S WCI  28
JEFFERSON CITY CLEAR     25  23  92 SE3       30.25R
ROLLA          CLEAR     27  23  85 SE8       30.24S WCI  19
OSAGE BEACH    CLEAR     28  27  96 SE5       30.25S WCI  23
SPRINGFIELD    CLOUDY    33  32  96 S8        30.23R WCI  26
JOPLIN         CLOUDY    37  35  92 SE8       30.21F WCI  31
WEST PLAINS    CLOUDY    30  28  92 CALM      30.26R FOG

$$

IAZ060-094-KSZ022-034>040-054-083-096-NEZ052-066-093-180900-
...KANSAS...SOUTHEAST NEBRASKA AND IOWA...

CITY           SKY/WX    TMP DP  RH WIND       PRES   REMARKS
TOPEKA         CLOUDY    26  23  88 NE3       30.13S
MANHATTAN      CLOUDY    38  17  42 S3        30.08F
EMPORIA        CLOUDY    31  16  54 S9        30.12F WCI  23
CHANUTE        CLOUDY    35  31  85 S7        30.18F WCI  29
WICHITA        CLOUDY    33  16  49 S9        30.10F WCI  25
OMAHA          CLEAR     28  24  85 S9        30.04F WCI  19
LINCOLN        CLEAR     29  22  75 S12       30.02F WCI  19
FALLS CITY     CLEAR     28  19  69 S9        30.09F WCI  19
LAMONI         CLEAR     28  21  75 SE8       30.12F WCI  20
DES MOINES     CLEAR     25  22  88 SE8       30.12F WCI  16

$$





USA.gov is the U.S. government's official web portal to all federal, state and local government web resources and services.